TimeEST,TemperatureF,Dew PointF,Humidity,Sea Level PressureIn,VisibilityMPH,Wind Direction,Wind SpeedMPH,Gust SpeedMPH,PrecipitationIn,Events,Conditions,WindDirDegrees,DateUTC
12:53 AM,46.9,43.0,86,30.27,10.0,NNE,11.5,-,0.00,,Overcast,30,2012-11-15 05:53:00
1:16 AM,46.4,42.8,87,30.26,10.0,NNE,8.1,-,N/A,,Overcast,30,2012-11-15 06:16:00
1:53 AM,46.9,43.0,86,30.26,10.0,NE,11.5,-,0.00,Rain,Light Rain,40,2012-11-15 06:53:00
2:05 AM,46.4,42.8,87,30.25,10.0,NE,11.5,-,0.00,Rain,Light Rain,40,2012-11-15 07:05:00
2:14 AM,46.4,42.8,87,30.24,10.0,NE,16.1,20.7,0.00,Rain,Light Rain,40,2012-11-15 07:14:00
2:53 AM,46.0,43.0,89,30.23,8.0,NNE,11.5,-,0.02,Rain,Light Rain,30,2012-11-15 07:53:00
3:53 AM,45.0,41.0,86,30.21,10.0,NNE,13.8,19.6,0.00,,Overcast,30,2012-11-15 08:53:00
4:53 AM,45.0,41.0,86,30.20,6.0,NE,13.8,21.9,0.02,Rain,Rain,40,2012-11-15 09:53:00
5:53 AM,44.1,42.1,93,30.19,4.0,NE,15.0,-,0.11,Rain,Rain,40,2012-11-15 10:53:00
6:12 AM,44.6,42.8,93,30.19,9.0,NE,13.8,-,0.00,Rain,Light Rain,40,2012-11-15 11:12:00
6:53 AM,45.0,43.0,93,30.20,9.0,NNE,8.1,-,0.00,,Mostly Cloudy,20,2012-11-15 11:53:00
7:00 AM,44.6,42.8,93,30.20,5.0,NNE,9.2,-,N/A,,Mostly Cloudy,30,2012-11-15 12:00:00
7:53 AM,45.0,43.0,93,30.23,3.0,North,9.2,-,0.00,Rain,Light Rain,10,2012-11-15 12:53:00
8:53 AM,44.1,42.1,93,30.27,3.0,North,8.1,-,0.06,Rain,Rain,350,2012-11-15 13:53:00
9:09 AM,44.6,41.0,87,30.26,2.0,North,8.1,17.3,0.07,Rain,Heavy Rain,360,2012-11-15 14:09:00
9:23 AM,44.6,42.8,93,30.27,4.0,North,9.2,-,0.09,Rain,Light Rain,360,2012-11-15 14:23:00
9:53 AM,43.0,41.0,93,30.30,4.0,NNW,8.1,-,0.09,Rain,Light Rain,330,2012-11-15 14:53:00
10:53 AM,42.1,39.9,92,30.29,4.0,NNW,8.1,-,0.02,Rain,Light Rain,330,2012-11-15 15:53:00
11:29 AM,42.8,39.2,87,30.25,10.0,North,6.9,16.1,0.00,,Overcast,350,2012-11-15 16:29:00
11:53 AM,44.1,41.0,89,30.23,6.0,NE,8.1,-,0.04,Rain,Rain,40,2012-11-15 16:53:00
12:01 PM,44.6,42.8,93,30.22,1.8,NE,9.2,-,0.10,Rain,Heavy Rain,40,2012-11-15 17:01:00
12:13 PM,44.6,42.8,93,30.20,2.5,NNE,11.5,-,0.16,Rain,Rain,20,2012-11-15 17:13:00
12:22 PM,44.6,42.8,93,30.19,4.0,NE,11.5,-,0.17,Rain,Light Rain,40,2012-11-15 17:22:00
12:40 PM,44.6,42.8,93,30.18,2.0,NE,11.5,-,0.24,Rain,Heavy Rain,40,2012-11-15 17:40:00
12:53 PM,45.0,44.1,97,30.16,2.5,NNE,13.8,-,0.29,Rain,Rain,30,2012-11-15 17:53:00
1:02 PM,46.4,44.6,93,30.16,3.0,NNE,12.7,-,0.03,Rain,Rain,30,2012-11-15 18:02:00
1:53 PM,48.0,46.9,96,30.17,4.0,NNE,6.9,-,0.14,Rain,Rain,20,2012-11-15 18:53:00
2:53 PM,48.9,46.9,93,30.19,4.0,NNW,8.1,-,0.05,Rain,Rain,330,2012-11-15 19:53:00
3:53 PM,48.0,46.9,96,30.19,9.0,NNW,9.2,-,0.01,,Overcast,330,2012-11-15 20:53:00
4:26 PM,48.2,46.4,93,30.19,8.0,North,9.2,-,0.00,Rain,Light Rain,360,2012-11-15 21:26:00
4:53 PM,46.9,45.0,93,30.20,5.0,North,8.1,-,0.00,Rain,Light Rain,350,2012-11-15 21:53:00
5:53 PM,46.0,45.0,96,30.20,6.0,North,6.9,-,0.00,,Overcast,360,2012-11-15 22:53:00
6:53 PM,46.0,45.0,96,30.21,5.0,North,5.8,-,N/A,,Overcast,350,2012-11-15 23:53:00
7:53 PM,46.0,45.0,96,30.21,5.0,NNE,8.1,-,N/A,,Overcast,20,2012-11-16 00:53:00
8:53 PM,46.9,45.0,93,30.22,6.0,North,8.1,-,N/A,,Overcast,360,2012-11-16 01:53:00
9:53 PM,46.9,46.0,97,30.22,6.0,North,6.9,-,N/A,,Overcast,360,2012-11-16 02:53:00
10:53 PM,46.9,46.0,97,30.22,4.0,North,5.8,-,N/A,,Overcast,360,2012-11-16 03:53:00
11:53 PM,46.9,46.0,97,30.22,5.0,North,8.1,-,N/A,,Overcast,360,2012-11-16 04:53:00